Home   Weather   Haarlem   Past weeks

Flag for Netherlands Past Weather in Haarlem, Netherlands — Yesterday and Last 2 Weeks

Now
61 °F

Clear.


Feels Like: 61 °F
Forecast: 60 / 72 °F
Wind: 1 mph from North

Location: Amsterdam Schiphol Airport

Current Time: Aug 30, 2016 at 10:59:28 PM

Latest Report: Aug 30, 2016 at 10:25 PM


Visibility: 10 mi

Pressure: 30.24 "Hg

Humidity: 88%

Dew Point: 57 °F

Location of HaarlemLocation

Past Weather in Haarlem — Graph

°F

Haarlem Temperature Yesterday

Maximum temperature yesterday: 70 °F (at 2:25 PM)
Minimum temperature yesterday: 57 °F (at 9:55 PM)
Average temperature yesterday: 64 °F

High & Low Weather Summary for the Past Weeks

 TemperatureHumidityPressure
High88 °F (Aug 25, 3:55 PM)100% (Aug 19, 8:55 PM)30.30 "Hg (Aug 19, 8:55 PM)
Low52 °F (Aug 30, 5:25 AM)42% (Aug 23, 5:55 PM)29.74 "Hg (Aug 19, 3:55 PM)
Average67 °F77%30.02 "Hg
* Reported Aug 15 9:25 PM — Aug 30 9:25 PM, Haarlem, Weather by CustomWeather, © 2016

Note: Actual official high and low records may vary slightly from our data, if they occured in-between our weather recording intervals... More about our weather records

Advertising

Haarlem Weather History for the Previous 24 Hours

Scroll right to see more
 ConditionsComfort  
Time TempWeatherWind HumidityBarometerVisibility
9:25 PM
Tue, Aug 30
63 °FSunny.1 mph88%30.24 "Hg10 mi
8:55 PM63 °FPassing clouds.3 mph83%30.24 "HgN/A
8:25 PM66 °FSunny.3 mph73%30.24 "Hg10 mi
7:55 PM68 °FSunny.5 mph69%30.24 "Hg10 mi
7:25 PM70 °FPassing clouds.3 mph69%30.24 "HgN/A
6:55 PM70 °FPassing clouds.6 mph69%30.24 "HgN/A
6:25 PM72 °FPassing clouds.6 mph65%30.24 "HgN/A
5:55 PM72 °FPassing clouds.7 mph65%30.24 "HgN/A
5:25 PM70 °FPassing clouds.7 mph69%30.24 "HgN/A
4:55 PM73 °FPassing clouds.5 mph61%30.24 "HgN/A
4:25 PM73 °FPassing clouds.6 mph61%30.27 "HgN/A
3:55 PM70 °FPassing clouds.5 mph69%30.27 "HgN/A
3:25 PM72 °FPassing clouds.8 mph65%30.27 "HgN/A
2:55 PM72 °FPassing clouds.5 mph65%30.27 "HgN/A
2:25 PM72 °FPassing clouds.2 mph61%30.30 "HgN/A
1:55 PM70 °FPassing clouds.5 mph64%30.30 "HgN/A
1:25 PM70 °FPassing clouds.7 mph64%30.30 "HgN/A
12:55 PM70 °FPassing clouds.8 mph69%30.30 "HgN/A
12:25 PM70 °FPassing clouds.3 mph69%30.30 "HgN/A
11:55 AM70 °FPassing clouds.7 mph69%30.30 "HgN/A
11:25 AM68 °FPassing clouds.6 mph69%30.30 "HgN/A
10:55 AM68 °FPassing clouds.6 mph69%30.30 "HgN/A
10:25 AM66 °FPassing clouds.7 mph78%30.30 "HgN/A
9:55 AM64 °FPassing clouds.7 mph78%30.30 "HgN/A
9:25 AM63 °FPassing clouds.6 mph83%30.30 "HgN/A
8:55 AM61 °FPassing clouds.5 mph88%30.30 "HgN/A
8:25 AM59 °FPassing clouds.5 mph94%30.27 "HgN/A
7:55 AM57 °FPassing clouds.6 mph88%30.27 "HgN/A
7:25 AM54 °FClear.5 mph94%30.27 "Hg10 mi
6:55 AM54 °FPassing clouds.3 mph94%30.27 "HgN/A
6:25 AM54 °FClear.5 mph94%30.27 "Hg10 mi
5:55 AM54 °FFog.6 mph94%30.27 "HgN/A
5:25 AM52 °FFog.3 mph100%30.27 "HgN/A
4:55 AM54 °FFog.3 mph94%30.27 "HgN/A
4:25 AM54 °FFog.1 mph94%30.27 "HgN/A
3:55 AM54 °FFog.3 mph94%30.27 "HgN/A
3:25 AM55 °FFog.3 mph94%30.27 "HgN/A
2:55 AM55 °FFog.2 mph94%30.27 "HgN/A
2:25 AM54 °FFog.3 mph94%30.27 "HgN/A
1:55 AM54 °FFog.2 mph100%30.27 "HgN/A
1:25 AM55 °FFog.1 mph94%30.27 "HgN/A
12:55 AM55 °FFog.1 mph94%30.27 "HgN/A
12:25 AM55 °FClear.1 mph88%30.24 "Hg10 mi
11:55 PM
Mon, Aug 29
57 °FClear.1 mph88%30.24 "Hg10 mi
11:25 PM57 °FClear.2 mph88%30.24 "Hg10 mi
10:55 PM59 °FClear.1 mph82%30.24 "Hg10 mi
10:25 PM57 °FClear.3 mph88%30.24 "Hg10 mi
Weather by CustomWeather, © 2016

See weather overviewHow to use our weather pages